map of TBP home
TBP - Airport
Location
City:  Tumbes, Tumbes, Perú
Name:Capitán FAP Pedro Canga Rodriguez
ICAO:SPME
IATA:TBP

Details
Type:Airport (Aerodrome, Airfield)
Use:Public/Civil
Latitude:3°33'08"S (-3.552263)
Longitude:80°22'52"W (-80.381068)
Elevation:115 ft (35 m)
Variation:1.69°W (WMM2015 magnetic declination)
-0.16° annual change
Runways:1
Longest:8202 × 148 ft (2500 × 45 m), paved

Time
Time Zone:UTC-5
Local Time:

Weather
METAR:SPME 210000Z 28005KT 9999 BKN013 26/23 Q1010 RMK BIRD HAZARD RWY 32/14 PP000
TAF:SPME 202300Z 2100/2124 VRB03KT 9999 BKN011 TX30/2119Z TN23/2111Z
TEMPO 2100/2103 4000 DZ OVC010
BECMG 2110/2112 BKN013
FM211530 32007KT 9999 SCT015

Related Locations
Nearby:
Farthest:KNO: 12398 mi / 19953 km
Medan (Kualanamu) [Kualanamu Intl (Kuala Namu Intl)], SU, ID

Find:

   beyond  
but within

Other Information
Maps:
NOTAMs:
Links:
Sources:

  
  • flag of Perú
  • flag of Tumbes
  

Sectional Chart

Flight Planning
at skyvector.com

Satellite Image

Google Maps Satellite view

 

Copyright © 2004-2019 Karl L. Swartz. All rights reserved.
The Great Circle Mapper name and logo are trademarks of the Great Circle Mapper.
All other trademarks mentioned herein belong to their respective owners.
Please see credits for attibutions and further copyright information.

  Follow gcmap on Facebook Follow gcmap on Twitter Follow gcmap on Google+ GCmap on LinkedIn

hCard Microformat

Geo Microformat